Flag for U.S.A. Weather past 2 weeks in Glendale, Arizona, U.S.A.

Now
97 °F

Passing clouds.


Feels Like: 96 °F
Forecast: 79 / 99 °F
Wind: 12 mph from Southwest

Location: Phoenix-Deer Valley Municipal Airport

Current Time: Aug 27, 2014 at 4:01:22 PM

Latest Report: Aug 27, 2014 at 2:53 PM


Visibility: 10 mi

Pressure: 29.87 "Hg

Humidity: 26%

Dew point: 57 °F

Location of GlendaleLocation

Historic Weather in Glendale — Graph

°F

Glendale temperature yesterday

Maximum temperature yesterday: 97 °F (at 4:53 PM)
Minimum temperature yesterday: 78 °F (at 5:53 AM)
Average temperature yesterday: 87 °F

Past Weeks' High & Low Weather Summary

 TemperatureHumidityPressure
High107 °F (Aug 17, 4:53 PM)94% (Aug 12, 9:53 PM)29.99 "Hg (Aug 12, 9:53 PM)
Low69 °F (Aug 22, 4:53 AM)18% (Aug 17, 4:53 PM)29.66 "Hg (Aug 17, 5:53 PM)
Average86 °F48%29.83 "Hg
* Reported Aug 12 2:53 PM — Aug 27 2:53 PM, Glendale, Weather by CustomWeather, © 2014

Note: Actual official high and low records may vary slightly from our data, if they occured in-between our weather recording intervals... More about our weather records

Advertising

Glendale weather history for previous 24 hours

 ConditionsComfort  
Time TempWeatherWind HumidityBarometerVisibility
2:53 PM
Aug 27
97 °FPassing clouds.12 mph26%29.87 "Hg10 mi
1:53 PM95 °FSunny.3 mph29%29.90 "Hg10 mi
12:53 PM94 °FSunny.3 mph30%29.93 "Hg10 mi
11:53 AM93 °FSunny.3 mph33%29.94 "Hg10 mi
10:53 AM90 °FSunny.5 mph38%29.96 "Hg10 mi
9:53 AM89 °FSunny.No wind39%29.97 "Hg10 mi
8:53 AM87 °FSunny.3 mph40%29.97 "Hg10 mi
7:53 AM84 °FSunny.8 mph45%29.96 "Hg10 mi
6:53 AM81 °FPartly sunny.3 mph49%29.96 "Hg10 mi
5:53 AM80 °FPassing clouds.5 mph51%29.93 "Hg10 mi
4:53 AM81 °FPassing clouds.6 mph47%29.91 "Hg10 mi
3:53 AM81 °FPassing clouds.3 mph47%29.90 "Hg10 mi
2:53 AM82 °FClear.6 mph46%29.89 "Hg10 mi
1:53 AM83 °FClear.5 mph48%29.89 "Hg10 mi
12:53 AM84 °FClear.No wind48%29.90 "Hg10 mi
11:53 PM
Aug 26
85 °FPassing clouds.5 mph50%29.89 "Hg10 mi
10:53 PM86 °FPassing clouds.10 mph48%29.88 "Hg10 mi
9:53 PM87 °FClear.7 mph36%29.87 "Hg10 mi
8:53 PM87 °FClear.5 mph36%29.85 "Hg10 mi
7:53 PM90 °FClear.6 mph32%29.83 "Hg10 mi
6:53 PM91 °FSunny.9 mph30%29.81 "Hg10 mi
5:53 PM95 °FSunny.10 mph28%29.79 "Hg10 mi
4:53 PM97 °FPassing clouds.10 mph27%29.80 "Hg10 mi
Weather by CustomWeather, © 2014

See weather overviewHow to use our weather pages